Regional Weather Roundup
Issued by NWS

Home | Current Version | Previous Version | Text Only | Print | Product List | Glossary Off
Versions: 1 2 3 4 5 6 7 8 9 10 11 12 13 14 15 16 17 18 19 20 21 22 23 24 25 26 27 28 29 30 31 32 33 34 35 36 37 38 39 40 41 42 43 44 45 46 47 48 49 50

000
ASUS45 KCYS 050210
RWRWY

WYOMING REGIONAL WEATHER ROUNDUP
NATIONAL WEATHER SERVICE CHEYENNE WY
800 PM MDT SAT JUL 04 2015

NOTE:  "FAIR" INDICATES FEW OR NO CLOUDS BELOW 12,000 FEET
WITH NO SIGNIFICANT WEATHER AND/OR OBSTRUCTIONS TO VISIBILITY.

WYZ001-050300-
YELLOWSTONE NATIONAL PARK

CITY           SKY/WX    TMP DP  RH WIND       PRES   REMARKS
LK YELLOWSTONE   N/A     73  36  25 VRB3      30.16R
W YELLOWSTONE  NOT AVBL

$$
WYZ002>013-054>058-071-098>099-050300-
NORTHERN WYOMING

CITY           SKY/WX    TMP DP  RH WIND       PRES   REMARKS
JACKSON        FAIR      75  43  31 SW8       30.03R
CODY           FAIR      86  46  25 NE3       29.87R
GREYBULL       FAIR      96  33  11 S5        29.74S HX  91
WORLAND        FAIR      88  51  28 CALM      29.78S
SHERIDAN       FAIR      89  56  32 CALM      29.80R
BUFFALO        FAIR      82  56  40 N5        29.90R
GILLETTE       FAIR      83  51  33 SE9       29.84R
HULETT         FAIR      79  61  53 SE7       29.86S
NEWCASTLE      FAIR      82  46  28 MISG      29.86R

$$
WYZ014>020-022>026-101>103-050300-
CENTRAL WYOMING

CITY           SKY/WX    TMP DP  RH WIND       PRES   REMARKS
BIG PINEY      FAIR      77  39  25 NW8       30.09R
PINEDALE       FAIR      77  36  22 W13       30.09R
DUBOIS         FAIR      79  36  21 NW15      30.05R
LANDER         FAIR      85  50  29 W7        29.87S
RIVERTON       FAIR      89  40  17 NE12      29.88R
CASPER         FAIR      85  49  28 E13       29.89S
DOUGLAS        FAIR      82  56  40 E10       29.90S

$$
WYZ021-027>030-104>119-050300-
SOUTHERN WYOMING

CITY           SKY/WX    TMP DP  RH WIND       PRES   REMARKS
EVANSTON       FAIR      76  49  38 S10       30.12R
KEMMERER       FAIR     N/A N/A N/A NW9       30.12R
FORT BRIDGER   MOCLDY    75  46  35 SW21G26   30.13R
ROCK SPRINGS   FAIR      77  45  32 SW20      30.06R
DIXON          FAIR      76  44  31 SW14G24   30.11R
RAWLINS        CLOUDY    81  43  26 SW17G24   30.04R
SARATOGA       CLOUDY    72  45  37 W10G18    30.12R
LARAMIE        MOCLDY    74  41  30 NW13      30.12R THUNDER
CHEYENNE       FAIR      74  49  41 S10G18    30.03R
TORRINGTON     FAIR      80  54  40 SE16      29.85R
PINE BLUFFS    FAIR      77  52  41 SW7       29.96R

$$


USA.gov is the U.S. government's official web portal to all federal, state and local government web resources and services.